Regional Weather Roundup
Issued by NWS

Home | Current Version | Previous Version | Text Only | Print | Product List | Glossary Off
Versions: 1 2 3 4 5 6 7 8 9 10 11 12 13 14 15 16 17 18 19 20 21 22 23 24 25 26 27 28 29 30 31 32 33 34 35 36 37 38 39 40 41 42 43 44 45 46 47 48 49 50

000
ASUS45 KTFX 230404
RWRMT
MONTANA HOURLY WEATHER ROUNDUP
NATIONAL WEATHER SERVICE GREAT FALLS MT
1004 PM MDT WED OCT 22 2014

NOTE: "FAIR" INDICATES FEW OR NO CLOUDS BELOW 12000 FEET WITH NO
SIGNIFICANT WEATHER AND/OR OBSTRUCTIONS TO VISIBILITY.

* THESE STATIONS ARE NOT UNDER NWS QUALITY CONTROL. THEY DO NOT
   REPORT WEATHER SUCH AS PRECIPITATION OR FOG.

MTZ001>007-043-230500-
WEST OF THE DIVIDE
CITY           SKY/WX    TMP DP  RH WIND       PRES   REMARKS
KALISPELL      CLOUDY    54  37  53 S6        29.84F
MISSOULA       PTCLDY    54  36  51 E8        29.90F
BUTTE          PTCLDY    39  30  70 SE3       30.04S
MULLAN PASS    MOCLDY    43  32  65 S13G25    29.88S
* ESSEX        N/A       41  38  89 N/A        N/A
* LINCOLN      N/A       38  33  82 N2         N/A
* LOOKOUT PASS N/A       49  36  61 S7G14      N/A
* POLSON       N/A       45  36  71 SE2        N/A
* RONAN APT    PTCLDY    52  37  57 N/A        N/A
* SEELEY LAKE  N/A       37  34  89 E2         N/A
* THOMP F APT  MOCLDY    38  26  62 E7         N/A   WCI  33
$$

MTZ008-052>055-230500-
SOUTHWEST MONTANA
CITY           SKY/WX    TMP DP  RH WIND       PRES   REMARKS
BOZEMAN        CLEAR     36  28  73 CALM      30.03F
DILLON         MOCLDY    39  28  65 SE3       30.06R
W YELLOWSTONE  CLEAR     27  25  92 CALM      30.19S
* THREE FORKS  CLEAR     48  39  71 SW8        N/A
* BOULDER HILL N/A       43  24  47 SW14       N/A
* MONIDA PASS  N/A       33  28  82 SE6        N/A   WCI  27
* RAYNOLDS PAS N/A       34  15  46 SE13       N/A   WCI  25
* WHITEHALL    N/A       45  28  51 SW4G15     N/A
* WISE RIVER   N/A       36  29  76 W2         N/A
$$

MTZ009>010-012-014-046-048-049-054-230500-
EAST SLOPES AND CENTRAL MONTANA
CITY           SKY/WX    TMP DP  RH WIND       PRES   REMARKS
CUT BANK       MOCLDY    50  34  54 SW5       29.80F
GREAT FALLS    CLEAR     46  34  63 S13       29.88F
HELENA         CLEAR     55  30  39 SW10G17   29.94F
MALMSTROM AFB  CLEAR     48  34  59 SW14      29.89F
* CONRAD       PTCLDY    43  37  79 S5         N/A
* DEARBORN     N/A       58  33  39 S17G24     N/A
* EAST GLACIER N/A       48  34  59 W17G27     N/A
* MONARCH      N/A       48  20  33 S13G24     N/A
* PENDROY      N/A       45  34  65 SW8        N/A
* ROGERS PASS  N/A       46  30  54 SE14G22    N/A
* SAINT MARY   N/A       51  34  52 SW11G21    N/A
* SWEET GRASS  N/A       53  33  47 SW20G29    N/A
$$

MTZ011-013-016-021-035-040-045-047-050-051-230500-
NORTH CENTRAL MONTANA
CITY           SKY/WX    TMP DP  RH WIND       PRES   REMARKS
HAVRE          CLEAR     54  36  51 SW18      29.81S
LEWISTOWN      CLEAR     45  30  56 SW9       29.92F
* CHESTER      N/A       45  35  68 SW7G13     N/A
* DENTON       N/A       41  29  62 SE6        N/A
* GEYSER       N/A       45  26  47 W11        N/A
* JUDITH GAP   N/A       49  30  48 SW11G16    N/A
* LOMA         N/A       53  34  49 SW6G15     N/A
$$

MTZ017>020-022>027-061-062-230500-
NORTHEAST MONTANA
CITY           SKY/WX    TMP DP  RH WIND       PRES   REMARKS
GLASGOW        PTCLDY    45  30  56 S8        29.87R
GLENDIVE       CLEAR     39  30  70 S5        29.93S WCI  35
JORDAN         CLEAR     30  27  89 W5        29.91R WCI  25
SIDNEY         CLEAR     43  32  65 S5        29.91S
WOLF POINT     PTCLDY    36  30  79 NW5       29.88S WCI  32
* BEAVER HILL  N/A       46  30  54 S6         N/A
* CIRCLE       N/A       40  31  70 N/A        N/A
* LINDSAY DVD  N/A       43  28  56 W6         N/A
* NAVAJO       N/A       42  31  65 W13        N/A
$$

MTZ028>042-056>058-230500-
SOUTHCENTRAL AND SOUTHEAST MONTANA
CITY           SKY/WX    TMP DP  RH WIND       PRES   REMARKS
BAKER          CLEAR     43  28  56 CALM      29.96R
BILLINGS       CLEAR     55  23  29 W15       29.97S
LIVINGSTON     CLEAR     52  23  32 SW24G37   30.00S
MILES CITY     CLEAR     45  28  51 S8        29.94R
* LAUREL APT   CLEAR     54  21  27 SW7        N/A
* ROUNDUP APT  CLEAR     46  27  48 SW5        N/A
* ALZADA       N/A       39  28  65 E4         N/A
* HYSHAM       N/A       50  21  32 W1         N/A
* LAME DEER    N/A       49  21  33 SW4        N/A
* REED POINT   N/A       44  25  47 SW2        N/A
* ROSCOE HILL  N/A       52  14  22 S16G25     N/A
$$

REGIONAL REPORTS...DAKOTAS
CITY           SKY/WX    TMP DP  RH WIND       PRES   REMARKS
WILLISTON      CLEAR     45  32  60 W7        29.88R
DICKINSON      CLEAR     45  30  56 SW8       29.91F
BEACH          N/A       39  30  70 SW3       29.94S
CROSBY         N/A       46  39  77 W12       29.84R
TIOGA          CLEAR     46  36  68 W12       29.89R
BISMARCK       CLEAR     45  36  71 SW3       29.92S
GRAND FORKS    PTCLDY    48  46  93 S8        29.85R
FARGO          PTCLDY    54  50  86 S10       29.90R
RAPID CITY     CLEAR     37  30  76 NW6       30.02S WCI  32
$$

REGIONAL REPORTS...WYOMING/IDAHO/WASHINGTON
CITY           SKY/WX    TMP DP  RH WIND       PRES   REMARKS
GILLETTE       CLEAR     45  19  35 S5        30.03R
SHERIDAN       CLEAR     34  25  70 S6        30.00S WCI  29
CODY           PTCLDY    54  25  33 W13G22    30.07R
YELLOWSTONE LA PTCLDY    27  23  85 CALM      30.24F
SALMON         CLOUDY   N/A N/A N/A N/A        N/A
MULLAN PASS    MOCLDY    43  32  65 S13G25    29.88S
SAND POINT     LGT RAIN  46  46 100 CALM      29.81S
SPOKANE        LGT RAIN  52  48  86 S10       29.78S

$$




USA.gov is the U.S. government's official web portal to all federal, state and local government web resources and services.